Погода в Бракнелле

Великобритания     51°24′17″N   0°44′59″E
темп.,
°C
ветер,
м/с
пор.,
м/с
влажн.,
%
обл.,
%
осадки,
мм/ч
давл.,
гПа
погр.,
м
26 октября, вт
вт2601:00+8юз379393 0.0 1017154
04:00+8юз3995100 0.0 1017203
07:00+9юз3994100 0.0 1017234
10:00+11юз51288100 0.0 1018382
13:00+16юз697793 0.0 1017884
16:00+16юз6117939 0.0 1017903
19:00+13юз5129439 0.0 1018427
22:00+13юз6139496 0.0 1018535
27 октября, ср
ср2701:00+14юз71486100 0.0 1018869
04:00+15юз71485100 0.0 1018911
07:00+15юз81482100 0.0 1017866
10:00+15юз71484100 0.0 1018841
13:00+16юз91477100 0.0 1018926
16:00+16ююз8147999 0.0 1016873
19:00+14ююз61584100 0.0 1016701
22:00+14ююз6158238 0.0 1015633
28 октября, чт
чт2801:00+13ююз6158669 0.0 1014574
04:00+12ю6149058 0.0 1013528
07:00+12ю614886 0.0 1012487
10:00+13ю613795 0.0 1011622
13:00+16ю712665 0.0 1009819
16:00+15ю714715 0.0 1007803
19:00+14ю6157616 0.0 1006634
22:00+14ю71676100 0.0 1004720
29 октября, пт
пт2901:00+14ю81774100 0.1 1001778
04:00+14ю101889100 1.8 10001087
07:00+14ююз91587100 7.0 1000971
10:00+13ююз71385100 0.4 1001817
13:00+14юз61076100 0.9 10021129
16:00+13юз6975100 0.1 1002909
19:00+11ююз41081100 0.1 1003393
22:00+9ю310875 0.2 1004261
30 октября, сб
сб3001:00+10ю4129199 0.2 1002359
04:00+11ююз61292100 1.2 1001662
07:00+10з3993100 14.1 1000502
10:00+10юз2892100 1.8 1001407
13:00+13зюз3576100 1.8 1003727
16:00+13зюз2477100 0.0 1003268
19:00+10юз2287100 0.0 100537
22:00+10юз2287100 0.0 100525